This is the latest recevied weather packets stored in our database for station/object KW4UJ. If no packets are shown the sender has not sent any weather packets the latest 10 day(s).
| Time | Temp. | Humidity | Pressure | Rain* | Wind** | Luminosity | Snow |
|---|---|---|---|---|---|---|---|
| 1777324450 | 20.56° C | 43% | 1022 hPa | 0 mm | - | 327 W/m² | - |
| 1777324147 | 20.56° C | 42% | 1022 hPa | 0 mm | - | 324 W/m² | - |
| 1777323846 | 20.56° C | 43% | 1022.1 hPa | 0 mm | - | 355 W/m² | - |
| 1777323542 | 20° C | 46% | 1022.3 hPa | 0 mm | - | 375 W/m² | - |
| 1777323239 | 20.56° C | 42% | 1022.4 hPa | 0 mm | - | 384 W/m² | - |
| 1777322936 | 20.56° C | 43% | 1022.3 hPa | 0 mm | - | 389 W/m² | - |
| 1777322635 | 20.56° C | 42% | 1022.3 hPa | 0 mm | - | 393 W/m² | - |
| 1777322332 | 21.11° C | 42% | 1022.8 hPa | 0 mm | - | 373 W/m² | - |
| 1777322029 | 21.67° C | 42% | 1022.5 hPa | 0 mm | - | 426 W/m² | - |
| 1777321725 | 21.11° C | 43% | 1022.5 hPa | 0 mm | - | 428 W/m² | - |
| 1777321422 | 21.11° C | 43% | 1022.6 hPa | 0 mm | - | 454 W/m² | - |
| 1777321119 | 21.11° C | 44% | 1022.5 hPa | 0 mm | - | 459 W/m² | - |
| 1777320817 | 20.56° C | 44% | 1022.6 hPa | 0 mm | - | 480 W/m² | - |
| 1777320513 | 20.56° C | 46% | 1022.6 hPa | 0 mm | - | 489 W/m² | - |
| 1777320211 | 20.56° C | 45% | 1022.7 hPa | 0 mm | - | 498 W/m² | - |
| 1777319907 | 20° C | 44% | 1022.5 hPa | 0 mm | - | 503 W/m² | - |
| 1777319605 | 20.56° C | 44% | 1022.6 hPa | 0 mm | - | 523 W/m² | - |
| 1777319302 | 20° C | 45% | 1022.6 hPa | 0 mm | - | 524 W/m² | - |
| 1777318999 | 20° C | 44% | 1022.5 hPa | 0 mm | - | 542 W/m² | - |
| 1777318695 | 21.11° C | 44% | 1022.6 hPa | 0 mm | - | 548 W/m² | - |
| 1777318391 | 20.56° C | 44% | 1022.5 hPa | 0 mm | - | 547 W/m² | - |
| 1777318089 | 20.56° C | 44% | 1022.5 hPa | 0 mm | - | 564 W/m² | - |
| 1777317785 | 21.11° C | 45% | 1022.8 hPa | 0 mm | - | 180 W/m² | - |
| 1777317482 | 21.11° C | 45% | 1022.9 hPa | 0 mm | - | 597 W/m² | - |
| 1777317180 | 21.11° C | 42% | 1023.1 hPa | 0 mm | - | 622 W/m² | - |
* Rain latest hour (hover to see other rain measurements)
** Current wind speed in m/s (hover to see current wind gust speed)